Time,TemperatureF,DewpointF,PressureIn,WindDirection,WindDirectionDegrees,WindSpeedMPH,WindSpeedGustMPH,Humidity,HourlyPrecipIn,Conditions,Clouds,dailyrainin,SoftwareType,DateUTC
2013-07-04 00:01:00,53.9,44.7,22.65,NNE,16,1.0,1.0,71,0.00,,,0.00,Wunderground v.1.15,2013-07-04 06:01:00,
2013-07-04 00:05:00,53.7,45.6,22.65,NNE,16,1.0,21.0,74,0.00,,,0.00,Wunderground v.1.15,2013-07-04 06:05:00,
2013-07-04 00:07:00,53.5,45.4,22.65,NNW,332,1.0,21.0,74,0.00,,,0.00,Wunderground v.1.15,2013-07-04 06:07:00,
2013-07-04 00:09:00,53.4,45.3,22.65,NNW,330,1.0,21.0,74,0.00,,,0.00,Wunderground v.1.15,2013-07-04 06:09:00,
2013-07-04 00:11:00,53.4,45.0,22.65,NNW,344,1.0,21.0,73,0.00,,,0.00,Wunderground v.1.15,2013-07-04 06:11:00,
2013-07-04 00:13:00,53.4,45.0,22.65,North,360,1.0,21.0,73,0.00,,,0.00,Wunderground v.1.15,2013-07-04 06:13:00,
2013-07-04 00:15:00,53.4,45.0,22.65,North,359,1.0,21.0,73,0.00,,,0.00,Wunderground v.1.15,2013-07-04 06:15:00,
2013-07-04 00:17:00,53.6,45.2,22.65,SE,141,1.0,21.0,73,0.00,,,0.00,Wunderground v.1.15,2013-07-04 06:17:00,
2013-07-04 00:19:00,53.6,45.5,22.65,NNW,343,1.0,21.0,74,0.00,,,0.00,Wunderground v.1.15,2013-07-04 06:19:00,
2013-07-04 00:21:00,53.5,44.7,22.65,NNE,32,1.0,21.0,72,0.00,,,0.00,Wunderground v.1.15,2013-07-04 06:21:00,
2013-07-04 00:23:00,53.5,45.4,22.65,NW,316,1.0,21.0,74,0.00,,,0.00,Wunderground v.1.15,2013-07-04 06:23:00,
2013-07-04 00:27:00,53.4,44.6,22.65,NE,49,1.0,21.0,72,0.00,,,0.00,Wunderground v.1.15,2013-07-04 06:27:00,
2013-07-04 00:29:00,53.5,44.3,22.65,North,355,1.0,21.0,71,0.00,,,0.00,Wunderground v.1.15,2013-07-04 06:29:00,
2013-07-04 00:31:00,53.8,44.2,22.65,NE,39,1.0,21.0,70,0.00,,,0.00,Wunderground v.1.15,2013-07-04 06:31:00,
2013-07-04 00:33:00,54.0,44.8,22.65,North,8,1.0,21.0,71,0.00,,,0.00,Wunderground v.1.15,2013-07-04 06:33:00,
2013-07-04 00:39:00,54.5,44.5,22.65,NE,53,1.0,21.0,69,0.00,,,0.00,Wunderground v.1.15,2013-07-04 06:39:00,
2013-07-04 00:41:00,54.7,44.3,22.65,NE,53,1.0,1.0,68,0.00,,,0.00,Wunderground v.1.15,2013-07-04 06:41:00,
2013-07-04 00:45:00,54.7,44.0,22.65,NE,53,0.0,21.0,67,0.00,,,0.00,Wunderground v.1.15,2013-07-04 06:45:00,
2013-07-04 00:47:00,54.7,44.7,22.65,NE,53,0.0,21.0,69,0.00,,,0.00,Wunderground v.1.15,2013-07-04 06:47:00,
2013-07-04 00:49:00,54.6,43.5,22.65,SW,217,0.0,21.0,66,0.00,,,0.00,Wunderground v.1.15,2013-07-04 06:49:00,
2013-07-04 00:51:00,55.0,44.2,22.65,South,191,0.0,21.0,67,0.00,,,0.00,Wunderground v.1.15,2013-07-04 06:51:00,
2013-07-04 00:53:00,55.3,43.7,22.65,SW,229,0.0,21.0,65,0.00,,,0.00,Wunderground v.1.15,2013-07-04 06:53:00,
2013-07-04 00:59:00,55.7,44.1,22.65,South,191,0.0,21.0,65,0.00,,,0.00,Wunderground v.1.15,2013-07-04 06:59:00,
2013-07-04 01:01:00,55.8,43.8,22.65,West,263,0.0,21.0,64,0.00,,,0.00,Wunderground v.1.15,2013-07-04 07:01:00,
2013-07-04 01:05:00,55.9,43.9,22.65,North,349,1.0,21.0,64,0.00,,,0.00,Wunderground v.1.15,2013-07-04 07:05:00,
2013-07-04 01:07:00,56.0,43.6,22.65,West,269,1.0,21.0,63,0.00,,,0.00,Wunderground v.1.15,2013-07-04 07:07:00,
2013-07-04 01:09:00,56.3,43.4,22.65,SSW,209,1.0,21.0,62,0.00,,,0.00,Wunderground v.1.15,2013-07-04 07:09:00,
2013-07-04 01:11:00,56.8,43.5,22.65,WSW,238,1.0,1.0,61,0.00,,,0.00,Wunderground v.1.15,2013-07-04 07:11:00,
2013-07-04 01:13:00,56.9,44.0,22.65,WSW,238,1.0,21.0,62,0.00,,,0.00,Wunderground v.1.15,2013-07-04 07:13:00,
2013-07-04 01:15:00,57.1,43.3,22.65,WSW,238,1.0,21.0,60,0.00,,,0.00,Wunderground v.1.15,2013-07-04 07:15:00,
2013-07-04 01:17:00,57.2,43.4,22.65,WSW,245,1.0,21.0,60,0.00,,,0.00,Wunderground v.1.15,2013-07-04 07:17:00,
2013-07-04 01:21:00,57.7,43.5,22.65,SW,231,1.0,1.0,59,0.00,,,0.00,Wunderground v.1.15,2013-07-04 07:21:00,
2013-07-04 01:23:00,57.9,43.2,22.65,SW,236,1.0,2.0,58,0.00,,,0.00,Wunderground v.1.15,2013-07-04 07:23:00,
2013-07-04 01:25:00,58.1,42.9,22.65,SW,218,1.0,3.0,57,0.00,,,0.00,Wunderground v.1.15,2013-07-04 07:25:00,
2013-07-04 01:27:00,58.3,43.1,22.65,SW,218,1.0,21.0,57,0.00,,,0.00,Wunderground v.1.15,2013-07-04 07:27:00,
2013-07-04 01:29:00,58.6,42.5,22.65,SW,236,1.0,21.0,55,0.00,,,0.00,Wunderground v.1.15,2013-07-04 07:29:00,
2013-07-04 01:33:00,58.8,42.7,22.65,West,262,1.0,5.0,55,0.00,,,0.00,Wunderground v.1.15,2013-07-04 07:33:00,
2013-07-04 01:35:00,58.8,43.1,22.65,NW,324,2.0,21.0,56,0.00,,,0.00,Wunderground v.1.15,2013-07-04 07:35:00,
2013-07-04 01:39:00,59.0,41.9,22.65,SW,235,2.0,21.0,53,0.00,,,0.00,Wunderground v.1.15,2013-07-04 07:39:00,
2013-07-04 01:43:00,59.5,42.3,22.65,SSW,211,2.0,21.0,53,0.00,,,0.00,Wunderground v.1.15,2013-07-04 07:43:00,
2013-07-04 01:45:00,59.9,41.7,22.65,SW,221,2.0,21.0,51,0.00,,,0.00,Wunderground v.1.15,2013-07-04 07:45:00,
2013-07-04 01:47:00,60.2,42.0,22.65,WNW,299,2.0,21.0,51,0.00,,,0.00,Wunderground v.1.15,2013-07-04 07:47:00,
2013-07-04 01:49:00,60.3,42.6,22.65,West,269,2.0,21.0,52,0.00,,,0.00,Wunderground v.1.15,2013-07-04 07:49:00,
2013-07-04 01:53:00,60.1,42.4,22.65,WSW,243,2.0,21.0,52,0.00,,,0.00,Wunderground v.1.15,2013-07-04 07:53:00,
2013-07-04 01:55:00,60.1,42.4,22.65,WSW,256,2.0,21.0,52,0.00,,,0.00,Wunderground v.1.15,2013-07-04 07:55:00,
2013-07-04 01:57:00,60.2,41.5,22.65,SW,232,2.0,21.0,50,0.00,,,0.00,Wunderground v.1.15,2013-07-04 07:57:00,
2013-07-04 01:59:00,60.5,41.2,22.65,WSW,243,2.0,21.0,49,0.00,,,0.00,Wunderground v.1.15,2013-07-04 07:59:00,
2013-07-04 02:01:00,61.0,41.2,22.65,WSW,245,3.0,3.0,48,0.00,,,0.00,Wunderground v.1.15,2013-07-04 08:01:00,
2013-07-04 02:05:00,61.6,40.6,22.65,WSW,246,4.0,21.0,46,0.00,,,0.00,Wunderground v.1.15,2013-07-04 08:05:00,
2013-07-04 02:07:00,61.9,40.9,22.65,WSW,256,4.0,21.0,46,0.00,,,0.00,Wunderground v.1.15,2013-07-04 08:07:00,
2013-07-04 02:11:00,61.8,41.3,22.65,West,266,4.0,4.0,47,0.00,,,0.00,Wunderground v.1.15,2013-07-04 08:11:00,
2013-07-04 02:13:00,61.5,41.1,22.65,WSW,243,4.0,21.0,47,0.00,,,0.00,Wunderground v.1.15,2013-07-04 08:13:00,
2013-07-04 02:15:00,61.3,42.0,22.64,WSW,240,3.0,21.0,49,0.00,,,0.00,Wunderground v.1.15,2013-07-04 08:15:00,
2013-07-04 02:17:00,61.0,41.7,22.65,SSW,208,2.0,21.0,49,0.00,,,0.00,Wunderground v.1.15,2013-07-04 08:17:00,
2013-07-04 02:19:00,60.9,41.1,22.65,WSW,238,2.0,21.0,48,0.00,,,0.00,Wunderground v.1.15,2013-07-04 08:19:00,
2013-07-04 02:21:00,60.8,41.5,22.65,SW,221,2.0,21.0,49,0.00,,,0.00,Wunderground v.1.15,2013-07-04 08:21:00,
2013-07-04 02:23:00,60.8,41.0,22.64,SSW,210,2.0,21.0,48,0.00,,,0.00,Wunderground v.1.15,2013-07-04 08:23:00,
2013-07-04 02:25:00,60.9,41.1,22.64,SSW,205,3.0,21.0,48,0.00,,,0.00,Wunderground v.1.15,2013-07-04 08:25:00,
2013-07-04 02:27:00,61.0,41.2,22.64,WSW,245,4.0,21.0,48,0.00,,,0.00,Wunderground v.1.15,2013-07-04 08:27:00,
2013-07-04 02:29:00,61.1,41.2,22.64,WSW,242,5.0,21.0,48,0.00,,,0.00,Wunderground v.1.15,2013-07-04 08:29:00,
2013-07-04 02:31:00,60.9,41.6,22.64,NW,311,5.0,5.0,49,0.00,,,0.00,Wunderground v.1.15,2013-07-04 08:31:00,
2013-07-04 02:37:00,60.2,42.0,22.65,SW,224,2.0,21.0,51,0.00,,,0.00,Wunderground v.1.15,2013-07-04 08:37:00,
2013-07-04 02:39:00,60.1,41.4,22.64,SW,228,2.0,21.0,50,0.00,,,0.00,Wunderground v.1.15,2013-07-04 08:39:00,
2013-07-04 02:41:00,60.2,41.0,22.65,WSW,250,3.0,21.0,49,0.00,,,0.00,Wunderground v.1.15,2013-07-04 08:41:00,
2013-07-04 02:45:00,60.2,41.0,22.65,WSW,242,4.0,21.0,49,0.00,,,0.00,Wunderground v.1.15,2013-07-04 08:45:00,
2013-07-04 02:47:00,60.3,41.6,22.65,WSW,242,4.0,21.0,50,0.00,,,0.00,Wunderground v.1.15,2013-07-04 08:47:00,
2013-07-04 02:49:00,60.2,41.5,22.65,SW,217,4.0,21.0,50,0.00,,,0.00,Wunderground v.1.15,2013-07-04 08:49:00,
2013-07-04 02:51:00,60.1,41.4,22.65,NNW,342,3.0,3.0,50,0.00,,,0.00,Wunderground v.1.15,2013-07-04 08:51:00,
2013-07-04 02:53:00,59.8,41.6,22.65,NNW,336,2.0,21.0,51,0.00,,,0.00,Wunderground v.1.15,2013-07-04 08:53:00,
2013-07-04 02:55:00,59.5,40.8,22.65,WSW,252,2.0,21.0,50,0.00,,,0.00,Wunderground v.1.15,2013-07-04 08:55:00,
2013-07-04 03:01:00,59.3,40.7,22.65,West,274,2.0,2.0,50,0.00,,,0.00,Wunderground v.1.15,2013-07-04 09:01:00,
2013-07-04 03:03:00,59.3,41.7,22.64,West,274,2.0,21.0,52,0.00,,,0.00,Wunderground v.1.15,2013-07-04 09:03:00,
2013-07-04 03:05:00,59.1,41.0,22.64,SW,231,2.0,21.0,51,0.00,,,0.00,Wunderground v.1.15,2013-07-04 09:05:00,
2013-07-04 03:07:00,59.1,41.0,22.65,SW,231,1.0,21.0,51,0.00,,,0.00,Wunderground v.1.15,2013-07-04 09:07:00,
2013-07-04 03:09:00,59.6,40.4,22.65,WSW,240,2.0,21.0,49,0.00,,,0.00,Wunderground v.1.15,2013-07-04 09:09:00,
2013-07-04 03:11:00,59.9,40.7,22.65,WSW,243,2.0,21.0,49,0.00,,,0.00,Wunderground v.1.15,2013-07-04 09:11:00,
2013-07-04 03:15:00,60.9,40.5,22.65,WSW,256,4.0,21.0,47,0.00,,,0.00,Wunderground v.1.15,2013-07-04 09:15:00,
2013-07-04 03:19:00,61.3,40.3,22.64,SW,236,5.0,21.0,46,0.00,,,0.00,Wunderground v.1.15,2013-07-04 09:19:00,
2013-07-04 03:25:00,61.5,39.9,22.65,WSW,253,5.0,21.0,45,0.00,,,0.00,Wunderground v.1.15,2013-07-04 09:25:00,
2013-07-04 03:27:00,61.6,40.6,22.64,West,259,4.0,21.0,46,0.00,,,0.00,Wunderground v.1.15,2013-07-04 09:27:00,
2013-07-04 03:29:00,61.6,40.0,22.64,WSW,245,4.0,21.0,45,0.00,,,0.00,Wunderground v.1.15,2013-07-04 09:29:00,
2013-07-04 03:31:00,61.6,40.0,22.64,SW,231,4.0,21.0,45,0.00,,,0.00,Wunderground v.1.15,2013-07-04 09:31:00,
2013-07-04 03:33:00,61.9,40.3,22.64,SSW,195,5.0,21.0,45,0.00,,,0.00,Wunderground v.1.15,2013-07-04 09:33:00,
2013-07-04 03:35:00,62.0,39.8,22.64,West,277,5.0,21.0,44,0.00,,,0.00,Wunderground v.1.15,2013-07-04 09:35:00,
2013-07-04 03:37:00,62.0,39.8,22.64,WSW,238,5.0,21.0,44,0.00,,,0.00,Wunderground v.1.15,2013-07-04 09:37:00,
2013-07-04 03:43:00,61.9,40.3,22.65,SW,232,5.0,21.0,45,0.00,,,0.00,Wunderground v.1.15,2013-07-04 09:43:00,
2013-07-04 03:45:00,61.8,40.2,22.64,SW,221,5.0,21.0,45,0.00,,,0.00,Wunderground v.1.15,2013-07-04 09:45:00,
2013-07-04 03:47:00,61.6,40.6,22.64,WSW,239,5.0,21.0,46,0.00,,,0.00,Wunderground v.1.15,2013-07-04 09:47:00,
2013-07-04 03:49:00,61.5,40.5,22.64,WSW,240,5.0,21.0,46,0.00,,,0.00,Wunderground v.1.15,2013-07-04 09:49:00,
2013-07-04 03:51:00,61.3,40.9,22.64,WSW,246,4.0,4.0,47,0.00,,,0.00,Wunderground v.1.15,2013-07-04 09:51:00,
2013-07-04 03:55:00,60.8,41.0,22.64,South,188,4.0,21.0,48,0.00,,,0.00,Wunderground v.1.15,2013-07-04 09:55:00,
2013-07-04 03:57:00,60.6,40.8,22.64,West,260,3.0,21.0,48,0.00,,,0.00,Wunderground v.1.15,2013-07-04 09:57:00,
2013-07-04 03:59:00,60.5,40.7,22.64,SW,231,3.0,21.0,48,0.00,,,0.00,Wunderground v.1.15,2013-07-04 09:59:00,
2013-07-04 04:01:00,60.3,40.5,22.64,WSW,256,2.0,2.0,48,0.00,,,0.00,Wunderground v.1.15,2013-07-04 10:01:00,
2013-07-04 04:03:00,60.0,41.3,22.64,West,262,2.0,21.0,50,0.00,,,0.00,Wunderground v.1.15,2013-07-04 10:03:00,
2013-07-04 04:05:00,59.7,41.0,22.64,WNW,301,1.0,21.0,50,0.00,,,0.00,Wunderground v.1.15,2013-07-04 10:05:00,
2013-07-04 04:07:00,59.5,40.8,22.64,NE,56,1.0,21.0,50,0.00,,,0.00,Wunderground v.1.15,2013-07-04 10:07:00,
2013-07-04 04:09:00,59.2,41.1,22.64,NW,309,1.0,21.0,51,0.00,,,0.00,Wunderground v.1.15,2013-07-04 10:09:00,
2013-07-04 04:11:00,59.0,40.4,22.64,West,271,1.0,21.0,50,0.00,,,0.00,Wunderground v.1.15,2013-07-04 10:11:00,
2013-07-04 04:15:00,59.0,40.4,22.64,NW,312,1.0,21.0,50,0.00,,,0.00,Wunderground v.1.15,2013-07-04 10:15:00,
2013-07-04 04:17:00,59.1,40.5,22.64,NW,319,1.0,21.0,50,0.00,,,0.00,Wunderground v.1.15,2013-07-04 10:17:00,
2013-07-04 04:19:00,59.2,40.6,22.64,NNW,336,1.0,21.0,50,0.00,,,0.00,Wunderground v.1.15,2013-07-04 10:19:00,
2013-07-04 04:21:00,59.3,40.7,22.64,WNW,282,1.0,1.0,50,0.00,,,0.00,Wunderground v.1.15,2013-07-04 10:21:00,
2013-07-04 04:23:00,59.3,40.1,22.64,NNW,333,1.0,21.0,49,0.00,,,0.00,Wunderground v.1.15,2013-07-04 10:23:00,
2013-07-04 04:27:00,59.3,40.1,22.64,West,273,1.0,21.0,49,0.00,,,0.00,Wunderground v.1.15,2013-07-04 10:27:00,
2013-07-04 04:29:00,59.3,40.1,22.64,NNW,336,1.0,21.0,49,0.00,,,0.00,Wunderground v.1.15,2013-07-04 10:29:00,
2013-07-04 04:31:00,59.4,40.7,22.64,WSW,252,1.0,1.0,50,0.00,,,0.00,Wunderground v.1.15,2013-07-04 10:31:00,
2013-07-04 04:35:00,59.6,40.4,22.64,WNW,283,1.0,21.0,49,0.00,,,0.00,Wunderground v.1.15,2013-07-04 10:35:00,
2013-07-04 04:37:00,59.6,40.4,22.64,NW,316,1.0,21.0,49,0.00,,,0.00,Wunderground v.1.15,2013-07-04 10:37:00,
2013-07-04 04:39:00,59.7,40.5,22.64,WSW,246,1.0,21.0,49,0.00,,,0.00,Wunderground v.1.15,2013-07-04 10:39:00,
2013-07-04 04:41:00,59.9,40.7,22.64,WSW,252,1.0,21.0,49,0.00,,,0.00,Wunderground v.1.15,2013-07-04 10:41:00,
2013-07-04 04:43:00,59.9,40.7,22.64,WSW,257,1.0,21.0,49,0.00,,,0.00,Wunderground v.1.15,2013-07-04 10:43:00,
2013-07-04 04:47:00,59.7,40.0,22.64,WSW,250,1.0,21.0,48,0.00,,,0.00,Wunderground v.1.15,2013-07-04 10:47:00,
2013-07-04 04:49:00,59.7,40.5,22.64,WSW,256,1.0,21.0,49,0.00,,,0.00,Wunderground v.1.15,2013-07-04 10:49:00,
2013-07-04 04:53:00,59.6,40.9,22.64,WSW,255,1.0,21.0,50,0.00,,,0.00,Wunderground v.1.15,2013-07-04 10:53:00,
2013-07-04 04:57:00,59.7,40.5,22.64,WNW,297,1.0,21.0,49,0.00,,,0.00,Wunderground v.1.15,2013-07-04 10:57:00,
2013-07-04 04:59:00,59.9,40.1,22.64,SW,215,1.0,21.0,48,0.00,,,0.00,Wunderground v.1.15,2013-07-04 10:59:00,
2013-07-04 05:05:00,60.0,41.3,22.64,WSW,243,1.0,21.0,50,0.00,,,0.00,Wunderground v.1.15,2013-07-04 11:05:00,
2013-07-04 05:07:00,59.8,41.1,22.65,WSW,245,1.0,21.0,50,0.00,,,0.00,Wunderground v.1.15,2013-07-04 11:07:00,
2013-07-04 05:11:00,59.5,41.3,22.65,WSW,245,0.0,21.0,51,0.00,,,0.00,Wunderground v.1.15,2013-07-04 11:11:00,
2013-07-04 05:13:00,59.2,41.1,22.65,WSW,245,0.0,21.0,51,0.00,,,0.00,Wunderground v.1.15,2013-07-04 11:13:00,
2013-07-04 05:15:00,59.0,40.9,22.65,WSW,245,0.0,21.0,51,0.00,,,0.00,Wunderground v.1.15,2013-07-04 11:15:00,
2013-07-04 05:19:00,58.7,41.6,22.65,WSW,245,0.0,21.0,53,0.00,,,0.00,Wunderground v.1.15,2013-07-04 11:19:00,
2013-07-04 05:21:00,58.5,41.4,22.65,NW,324,0.0,21.0,53,0.00,,,0.00,Wunderground v.1.15,2013-07-04 11:21:00,
2013-07-04 05:25:00,58.3,41.7,22.65,NW,326,0.0,21.0,54,0.00,,,0.00,Wunderground v.1.15,2013-07-04 11:25:00,
2013-07-04 05:27:00,58.2,41.1,22.65,NW,326,0.0,21.0,53,0.00,,,0.00,Wunderground v.1.15,2013-07-04 11:27:00,
2013-07-04 05:29:00,58.2,41.6,22.65,NW,326,0.0,21.0,54,0.00,,,0.00,Wunderground v.1.15,2013-07-04 11:29:00,
2013-07-04 05:31:00,58.0,41.9,22.65,ESE,113,0.0,21.0,55,0.00,,,0.00,Wunderground v.1.15,2013-07-04 11:31:00,
2013-07-04 05:33:00,57.7,42.1,22.65,ESE,113,0.0,21.0,56,0.00,,,0.00,Wunderground v.1.15,2013-07-04 11:33:00,
2013-07-04 05:37:00,57.3,42.2,22.65,NNE,13,0.0,21.0,57,0.00,,,0.00,Wunderground v.1.15,2013-07-04 11:37:00,
2013-07-04 05:39:00,57.1,42.0,22.65,WSW,248,0.0,21.0,57,0.00,,,0.00,Wunderground v.1.15,2013-07-04 11:39:00,
2013-07-04 05:41:00,56.9,42.7,22.65,WSW,247,0.0,21.0,59,0.00,,,0.00,Wunderground v.1.15,2013-07-04 11:41:00,
2013-07-04 05:43:00,56.7,42.5,22.65,WSW,248,0.0,21.0,59,0.00,,,0.00,Wunderground v.1.15,2013-07-04 11:43:00,
2013-07-04 05:45:00,56.5,42.8,22.65,WSW,248,0.0,21.0,60,0.00,,,0.00,Wunderground v.1.15,2013-07-04 11:45:00,
2013-07-04 05:47:00,56.4,42.2,22.65,WSW,248,0.0,21.0,59,0.00,,,0.00,Wunderground v.1.15,2013-07-04 11:47:00,
2013-07-04 05:49:00,56.2,42.5,22.65,WSW,248,0.0,21.0,60,0.00,,,0.00,Wunderground v.1.15,2013-07-04 11:49:00,
2013-07-04 05:51:00,56.0,41.9,22.65,WSW,248,0.0,21.0,59,0.00,,,0.00,Wunderground v.1.15,2013-07-04 11:51:00,
2013-07-04 05:57:00,55.9,42.6,22.65,NNW,339,0.0,21.0,61,0.00,,,0.00,Wunderground v.1.15,2013-07-04 11:57:00,
2013-07-04 05:59:00,55.9,43.1,22.65,WSW,256,0.0,21.0,62,0.00,,,0.00,Wunderground v.1.15,2013-07-04 11:59:00,
2013-07-04 06:01:00,55.9,42.2,22.65,WSW,256,0.0,21.0,60,0.00,,,0.00,Wunderground v.1.15,2013-07-04 12:01:00,
2013-07-04 06:05:00,55.8,42.1,22.65,WSW,256,0.0,21.0,60,0.00,,,0.00,Wunderground v.1.15,2013-07-04 12:05:00,
2013-07-04 06:07:00,55.8,42.5,22.65,WSW,256,0.0,21.0,61,0.00,,,0.00,Wunderground v.1.15,2013-07-04 12:07:00,
2013-07-04 06:11:00,56.0,43.2,22.65,NW,314,0.0,21.0,62,0.00,,,0.00,Wunderground v.1.15,2013-07-04 12:11:00,
2013-07-04 06:13:00,56.1,42.4,22.65,NW,315,0.0,21.0,60,0.00,,,0.00,Wunderground v.1.15,2013-07-04 12:13:00,
2013-07-04 06:15:00,56.2,43.8,22.66,NW,315,0.0,21.0,63,0.00,,,0.00,Wunderground v.1.15,2013-07-04 12:15:00,
2013-07-04 06:17:00,56.3,43.0,22.66,West,259,0.0,21.0,61,0.00,,,0.00,Wunderground v.1.15,2013-07-04 12:17:00,
2013-07-04 06:21:00,57.0,43.2,22.66,SSW,211,0.0,21.0,60,0.00,,,0.00,Wunderground v.1.15,2013-07-04 12:21:00,
2013-07-04 06:23:00,57.1,42.9,22.66,SSW,211,0.0,21.0,59,0.00,,,0.00,Wunderground v.1.15,2013-07-04 12:23:00,
2013-07-04 06:25:00,57.1,43.3,22.66,SE,143,0.0,21.0,60,0.00,,,0.00,Wunderground v.1.15,2013-07-04 12:25:00,
2013-07-04 06:29:00,57.3,43.1,22.66,WSW,245,0.0,21.0,59,0.00,,,0.00,Wunderground v.1.15,2013-07-04 12:29:00,
2013-07-04 06:33:00,57.3,43.5,22.66,WSW,245,0.0,21.0,60,0.00,,,0.00,Wunderground v.1.15,2013-07-04 12:33:00,
2013-07-04 06:37:00,57.2,43.0,22.66,WSW,242,0.0,21.0,59,0.00,,,0.00,Wunderground v.1.15,2013-07-04 12:37:00,
2013-07-04 06:41:00,57.2,43.9,22.66,WSW,242,0.0,21.0,61,0.00,,,0.00,Wunderground v.1.15,2013-07-04 12:41:00,
2013-07-04 06:43:00,57.1,43.3,22.66,WSW,242,0.0,21.0,60,0.00,,,0.00,Wunderground v.1.15,2013-07-04 12:43:00,
2013-07-04 06:47:00,57.2,43.4,22.66,SW,226,0.0,21.0,60,0.00,,,0.00,Wunderground v.1.15,2013-07-04 12:47:00,
2013-07-04 06:51:00,57.4,43.2,22.66,SW,226,0.0,21.0,59,0.00,,,0.00,Wunderground v.1.15,2013-07-04 12:51:00,
2013-07-04 06:53:00,57.5,42.4,22.66,SW,225,0.0,21.0,57,0.00,,,0.00,Wunderground v.1.15,2013-07-04 12:53:00,
2013-07-04 06:57:00,57.8,43.1,22.66,SW,225,0.0,21.0,58,0.00,,,0.00,Wunderground v.1.15,2013-07-04 12:57:00,
2013-07-04 07:01:00,57.8,43.6,22.66,SW,225,0.0,21.0,59,0.00,,,0.00,Wunderground v.1.15,2013-07-04 13:01:00,
2013-07-04 07:05:00,58.0,44.2,22.66,SW,225,0.0,21.0,60,0.00,,,0.00,Wunderground v.1.15,2013-07-04 13:05:00,
2013-07-04 07:07:00,58.0,42.8,22.66,SW,225,0.0,21.0,57,0.00,,,0.00,Wunderground v.1.15,2013-07-04 13:07:00,
2013-07-04 07:09:00,58.0,42.8,22.67,SW,225,0.0,21.0,57,0.00,,,0.00,Wunderground v.1.15,2013-07-04 13:09:00,
2013-07-04 07:11:00,58.2,43.0,22.67,SW,225,0.0,21.0,57,0.00,,,0.00,Wunderground v.1.15,2013-07-04 13:11:00,
2013-07-04 07:15:00,58.3,44.0,22.67,SW,225,0.0,21.0,59,0.00,,,0.00,Wunderground v.1.15,2013-07-04 13:15:00,
2013-07-04 07:17:00,58.3,43.1,22.67,SW,226,0.0,21.0,57,0.00,,,0.00,Wunderground v.1.15,2013-07-04 13:17:00,
2013-07-04 07:21:00,58.4,44.1,22.67,SW,225,0.0,21.0,59,0.00,,,0.00,Wunderground v.1.15,2013-07-04 13:21:00,
2013-07-04 07:23:00,58.6,43.9,22.67,SW,226,0.0,21.0,58,0.00,,,0.00,Wunderground v.1.15,2013-07-04 13:23:00,
2013-07-04 07:27:00,59.1,45.7,22.67,SW,226,0.0,21.0,61,0.00,,,0.00,Wunderground v.1.15,2013-07-04 13:27:00,
2013-07-04 07:29:00,59.3,44.1,22.67,SW,225,0.0,21.0,57,0.00,,,0.00,Wunderground v.1.15,2013-07-04 13:29:00,
2013-07-04 07:31:00,59.3,44.1,22.67,ESE,104,0.0,21.0,57,0.00,,,0.00,Wunderground v.1.15,2013-07-04 13:31:00,
2013-07-04 07:33:00,59.5,45.2,22.67,ESE,105,0.0,21.0,59,0.00,,,0.00,Wunderground v.1.15,2013-07-04 13:33:00,
2013-07-04 07:37:00,59.5,44.2,22.67,ESE,105,0.0,21.0,57,0.00,,,0.00,Wunderground v.1.15,2013-07-04 13:37:00,
2013-07-04 07:39:00,59.6,44.8,22.67,ESE,105,0.0,21.0,58,0.00,,,0.00,Wunderground v.1.15,2013-07-04 13:39:00,
2013-07-04 07:41:00,59.6,44.8,22.67,ESE,105,0.0,21.0,58,0.00,,,0.00,Wunderground v.1.15,2013-07-04 13:41:00,
2013-07-04 07:43:00,59.5,44.2,22.67,ESE,105,0.0,21.0,57,0.00,,,0.00,Wunderground v.1.15,2013-07-04 13:43:00,
2013-07-04 07:49:00,60.4,44.6,22.67,ESE,105,0.0,21.0,56,0.00,,,0.00,Wunderground v.1.15,2013-07-04 13:49:00,
2013-07-04 07:51:00,60.9,44.1,22.67,SSE,151,0.0,21.0,54,0.00,,,0.00,Wunderground v.1.15,2013-07-04 13:51:00,
2013-07-04 07:53:00,61.6,44.8,22.67,SE,145,0.0,21.0,54,0.00,,,0.00,Wunderground v.1.15,2013-07-04 13:53:00,
2013-07-04 07:55:00,62.3,44.9,22.67,SE,145,0.0,21.0,53,0.00,,,0.00,Wunderground v.1.15,2013-07-04 13:55:00,
2013-07-04 07:57:00,63.0,45.1,22.67,SE,145,0.0,21.0,52,0.00,,,0.00,Wunderground v.1.15,2013-07-04 13:57:00,
2013-07-04 07:59:00,63.9,45.9,22.67,SE,145,0.0,21.0,52,0.00,,,0.00,Wunderground v.1.15,2013-07-04 13:59:00,
2013-07-04 08:01:00,64.8,45.7,22.67,SE,145,0.0,21.0,50,0.00,,,0.00,Wunderground v.1.15,2013-07-04 14:01:00,
2013-07-04 08:03:00,65.5,45.8,22.67,SE,145,0.0,21.0,49,0.00,,,0.00,Wunderground v.1.15,2013-07-04 14:03:00,
2013-07-04 08:07:00,66.5,45.6,22.67,SE,144,0.0,21.0,47,0.00,,,0.00,Wunderground v.1.15,2013-07-04 14:07:00,
2013-07-04 08:09:00,67.1,46.2,22.67,SE,143,0.0,21.0,47,0.00,,,0.00,Wunderground v.1.15,2013-07-04 14:09:00,
2013-07-04 08:13:00,68.2,47.2,22.67,SSE,162,0.0,21.0,47,0.00,,,0.00,Wunderground v.1.15,2013-07-04 14:13:00,
2013-07-04 08:15:00,68.6,45.8,22.67,SSE,157,0.0,21.0,44,0.00,,,0.00,Wunderground v.1.15,2013-07-04 14:15:00,
2013-07-04 08:19:00,69.8,45.0,22.67,ESE,112,0.0,21.0,41,0.00,,,0.00,Wunderground v.1.15,2013-07-04 14:19:00,
2013-07-04 08:21:00,70.0,46.5,22.67,ENE,65,0.0,21.0,43,0.00,,,0.00,Wunderground v.1.15,2013-07-04 14:21:00,
2013-07-04 08:25:00,69.9,46.4,22.67,ENE,63,1.0,21.0,43,0.00,,,0.00,Wunderground v.1.15,2013-07-04 14:25:00,
2013-07-04 08:29:00,70.4,48.0,22.67,NE,53,1.0,21.0,45,0.00,,,0.00,Wunderground v.1.15,2013-07-04 14:29:00,
2013-07-04 08:31:00,70.8,46.6,22.67,ENE,71,1.0,21.0,42,0.00,,,0.00,Wunderground v.1.15,2013-07-04 14:31:00,
2013-07-04 08:33:00,70.7,45.2,22.67,NE,56,1.0,21.0,40,0.00,,,0.00,Wunderground v.1.15,2013-07-04 14:33:00,
2013-07-04 08:35:00,70.9,48.5,22.67,ENE,57,1.0,21.0,45,0.00,,,0.00,Wunderground v.1.15,2013-07-04 14:35:00,
2013-07-04 08:39:00,71.6,44.6,22.67,ESE,105,1.0,21.0,38,0.00,,,0.00,Wunderground v.1.15,2013-07-04 14:39:00,
2013-07-04 08:41:00,71.8,42.7,22.67,East,79,1.0,21.0,35,0.00,,,0.00,Wunderground v.1.15,2013-07-04 14:41:00,
2013-07-04 08:45:00,71.7,42.6,22.67,NNE,12,2.0,21.0,35,0.00,,,0.00,Wunderground v.1.15,2013-07-04 14:45:00,
2013-07-04 08:47:00,72.0,43.6,22.67,North,11,2.0,21.0,36,0.00,,,0.00,Wunderground v.1.15,2013-07-04 14:47:00,
2013-07-04 08:51:00,72.4,41.7,22.67,WSW,238,1.0,1.0,33,0.00,,,0.00,Wunderground v.1.15,2013-07-04 14:51:00,
2013-07-04 08:57:00,73.3,45.4,22.67,NE,44,1.0,21.0,37,0.00,,,0.00,Wunderground v.1.15,2013-07-04 14:57:00,
2013-07-04 09:01:00,73.0,40.6,22.67,ENE,67,1.0,21.0,31,0.00,,,0.00,Wunderground v.1.15,2013-07-04 15:01:00,
2013-07-04 09:03:00,72.8,41.2,22.67,SE,124,2.0,21.0,32,0.00,,,0.00,Wunderground v.1.15,2013-07-04 15:03:00,
2013-07-04 09:05:00,73.0,43.7,22.67,NE,36,2.0,21.0,35,0.00,,,0.00,Wunderground v.1.15,2013-07-04 15:05:00,
2013-07-04 09:07:00,73.0,41.4,22.67,ENE,65,2.0,21.0,32,0.00,,,0.00,Wunderground v.1.15,2013-07-04 15:07:00,
2013-07-04 09:11:00,73.2,43.1,22.67,South,174,2.0,21.0,34,0.00,,,0.00,Wunderground v.1.15,2013-07-04 15:11:00,
2013-07-04 09:13:00,73.3,40.8,22.67,East,101,2.0,21.0,31,0.00,,,0.00,Wunderground v.1.15,2013-07-04 15:13:00,
2013-07-04 09:15:00,73.5,41.8,22.67,East,98,2.0,21.0,32,0.00,,,0.00,Wunderground v.1.15,2013-07-04 15:15:00,
2013-07-04 09:17:00,73.7,42.8,22.67,ESE,106,2.0,21.0,33,0.00,,,0.00,Wunderground v.1.15,2013-07-04 15:17:00,
2013-07-04 09:19:00,73.4,40.1,22.67,NE,56,3.0,21.0,30,0.00,,,0.00,Wunderground v.1.15,2013-07-04 15:19:00,
2013-07-04 09:21:00,73.3,41.6,22.67,NE,36,3.0,3.0,32,0.00,,,0.00,Wunderground v.1.15,2013-07-04 15:21:00,
2013-07-04 09:23:00,73.3,41.6,22.67,East,79,3.0,4.0,32,0.00,,,0.00,Wunderground v.1.15,2013-07-04 15:23:00,
2013-07-04 09:27:00,73.4,40.9,22.67,SE,124,3.0,21.0,31,0.00,,,0.00,Wunderground v.1.15,2013-07-04 15:27:00,
2013-07-04 09:29:00,73.8,42.1,22.67,ESE,112,2.0,21.0,32,0.00,,,0.00,Wunderground v.1.15,2013-07-04 15:29:00,
2013-07-04 09:31:00,74.1,41.5,22.67,NE,56,2.0,21.0,31,0.00,,,0.00,Wunderground v.1.15,2013-07-04 15:31:00,
2013-07-04 09:33:00,73.7,41.2,22.67,NE,40,2.0,21.0,31,0.00,,,0.00,Wunderground v.1.15,2013-07-04 15:33:00,
2013-07-04 09:35:00,73.7,42.8,22.67,ENE,70,2.0,21.0,33,0.00,,,0.00,Wunderground v.1.15,2013-07-04 15:35:00,
2013-07-04 09:37:00,73.8,40.4,22.67,East,86,2.0,21.0,30,0.00,,,0.00,Wunderground v.1.15,2013-07-04 15:37:00,
2013-07-04 09:39:00,73.7,41.2,22.67,NNE,26,3.0,21.0,31,0.00,,,0.00,Wunderground v.1.15,2013-07-04 15:39:00,
2013-07-04 09:41:00,73.6,39.4,22.67,WSW,252,3.0,3.0,29,0.00,,,0.00,Wunderground v.1.15,2013-07-04 15:41:00,
2013-07-04 09:43:00,73.6,40.2,22.67,WNW,291,2.0,21.0,30,0.00,,,0.00,Wunderground v.1.15,2013-07-04 15:43:00,
2013-07-04 09:45:00,73.8,39.5,22.67,East,79,2.0,21.0,29,0.00,,,0.00,Wunderground v.1.15,2013-07-04 15:45:00,
2013-07-04 09:47:00,74.4,41.8,22.66,SSW,195,2.0,21.0,31,0.00,,,0.00,Wunderground v.1.15,2013-07-04 15:47:00,
2013-07-04 09:53:00,75.5,43.6,22.66,SE,126,1.0,3.0,32,0.00,,,0.00,Wunderground v.1.15,2013-07-04 15:53:00,
2013-07-04 09:55:00,75.5,40.1,22.66,SSW,208,1.0,4.0,28,0.00,,,0.00,Wunderground v.1.15,2013-07-04 15:55:00,
2013-07-04 09:57:00,75.7,43.7,22.66,NNE,13,2.0,7.0,32,0.00,,,0.00,Wunderground v.1.15,2013-07-04 15:57:00,
2013-07-04 10:01:00,76.3,41.7,22.66,ENE,77,3.0,3.0,29,0.00,,,0.00,Wunderground v.1.15,2013-07-04 16:01:00,
2013-07-04 10:03:00,76.3,39.8,22.66,ENE,60,3.0,5.0,27,0.00,,,0.00,Wunderground v.1.15,2013-07-04 16:03:00,
2013-07-04 10:05:00,75.6,41.1,22.66,East,82,3.0,21.0,29,0.00,,,0.00,Wunderground v.1.15,2013-07-04 16:05:00,
2013-07-04 10:09:00,75.6,39.2,22.66,ESE,113,3.0,21.0,27,0.00,,,0.00,Wunderground v.1.15,2013-07-04 16:09:00,
2013-07-04 10:11:00,75.6,39.2,22.66,SSW,212,3.0,3.0,27,0.00,,,0.00,Wunderground v.1.15,2013-07-04 16:11:00,
2013-07-04 10:13:00,75.5,42.7,22.66,NNE,23,3.0,4.0,31,0.00,,,0.00,Wunderground v.1.15,2013-07-04 16:13:00,
2013-07-04 10:15:00,75.6,40.2,22.66,NNE,30,3.0,21.0,28,0.00,,,0.00,Wunderground v.1.15,2013-07-04 16:15:00,
2013-07-04 10:17:00,75.7,42.1,22.66,East,81,3.0,21.0,30,0.00,,,0.00,Wunderground v.1.15,2013-07-04 16:17:00,
2013-07-04 10:19:00,75.7,40.3,22.66,SE,141,3.0,21.0,28,0.00,,,0.00,Wunderground v.1.15,2013-07-04 16:19:00,
2013-07-04 10:21:00,75.7,40.3,22.66,SE,124,3.0,3.0,28,0.00,,,0.00,Wunderground v.1.15,2013-07-04 16:21:00,
2013-07-04 10:25:00,75.9,41.3,22.66,ENE,63,2.0,21.0,29,0.00,,,0.00,Wunderground v.1.15,2013-07-04 16:25:00,
2013-07-04 10:27:00,75.7,40.3,22.65,NE,49,3.0,21.0,28,0.00,,,0.00,Wunderground v.1.15,2013-07-04 16:27:00,
2013-07-04 10:29:00,75.4,41.8,22.66,NNE,13,3.0,21.0,30,0.00,,,0.00,Wunderground v.1.15,2013-07-04 16:29:00,
2013-07-04 10:33:00,74.6,40.2,22.66,NNW,341,3.0,21.0,29,0.00,,,0.00,Wunderground v.1.15,2013-07-04 16:33:00,
2013-07-04 10:37:00,74.7,42.0,22.66,WNW,283,3.0,21.0,31,0.00,,,0.00,Wunderground v.1.15,2013-07-04 16:37:00,
2013-07-04 10:43:00,74.9,39.6,22.65,ENE,63,2.0,4.0,28,0.00,,,0.00,Wunderground v.1.15,2013-07-04 16:43:00,
2013-07-04 10:45:00,74.8,37.6,22.65,ENE,58,3.0,21.0,26,0.00,,,0.00,Wunderground v.1.15,2013-07-04 16:45:00,
2013-07-04 10:47:00,74.5,39.2,22.65,ESE,116,3.0,21.0,28,0.00,,,0.00,Wunderground v.1.15,2013-07-04 16:47:00,
2013-07-04 10:51:00,74.4,40.9,22.65,NNW,344,3.0,3.0,30,0.00,,,0.00,Wunderground v.1.15,2013-07-04 16:51:00,
2013-07-04 10:53:00,74.7,42.0,22.65,East,96,3.0,21.0,31,0.00,,,0.00,Wunderground v.1.15,2013-07-04 16:53:00,
2013-07-04 10:57:00,75.1,37.9,22.65,ESE,113,2.0,21.0,26,0.00,,,0.00,Wunderground v.1.15,2013-07-04 16:57:00,
2013-07-04 10:59:00,75.5,41.0,22.65,South,176,2.0,21.0,29,0.00,,,0.00,Wunderground v.1.15,2013-07-04 16:59:00,
2013-07-04 11:03:00,75.9,41.3,22.65,SE,135,2.0,21.0,29,0.00,,,0.00,Wunderground v.1.15,2013-07-04 17:03:00,
2013-07-04 11:05:00,75.8,39.4,22.65,NNW,344,2.0,21.0,27,0.00,,,0.00,Wunderground v.1.15,2013-07-04 17:05:00,
2013-07-04 11:07:00,75.8,39.4,22.65,West,263,2.0,21.0,27,0.00,,,0.00,Wunderground v.1.15,2013-07-04 17:07:00,
2013-07-04 11:11:00,75.9,40.4,22.65,NE,39,3.0,21.0,28,0.00,,,0.00,Wunderground v.1.15,2013-07-04 17:11:00,
2013-07-04 11:13:00,75.5,38.2,22.65,NNW,345,3.0,21.0,26,0.00,,,0.00,Wunderground v.1.15,2013-07-04 17:13:00,
2013-07-04 11:15:00,75.3,39.9,22.65,NNW,348,3.0,21.0,28,0.00,,,0.00,Wunderground v.1.15,2013-07-04 17:15:00,
2013-07-04 11:19:00,75.3,39.0,22.65,SSE,153,3.0,21.0,27,0.00,,,0.00,Wunderground v.1.15,2013-07-04 17:19:00,
2013-07-04 11:21:00,75.7,41.2,22.65,SSW,205,2.0,21.0,29,0.00,,,0.00,Wunderground v.1.15,2013-07-04 17:21:00,
2013-07-04 11:23:00,75.9,38.5,22.65,WSW,250,2.0,21.0,26,0.00,,,0.00,Wunderground v.1.15,2013-07-04 17:23:00,
2013-07-04 11:27:00,76.4,39.9,22.65,SW,229,2.0,21.0,27,0.00,,,0.00,Wunderground v.1.15,2013-07-04 17:27:00,
2013-07-04 11:29:00,76.9,41.3,22.65,SE,135,2.0,21.0,28,0.00,,,0.00,Wunderground v.1.15,2013-07-04 17:29:00,
2013-07-04 11:33:00,77.0,38.5,22.65,SE,143,2.0,21.0,25,0.00,,,0.00,Wunderground v.1.15,2013-07-04 17:33:00,
2013-07-04 11:35:00,76.8,37.3,22.65,NNE,29,2.0,21.0,24,0.00,,,0.00,Wunderground v.1.15,2013-07-04 17:35:00,
2013-07-04 11:37:00,77.0,40.4,22.65,East,97,2.0,21.0,27,0.00,,,0.00,Wunderground v.1.15,2013-07-04 17:37:00,
2013-07-04 11:39:00,76.7,37.2,22.65,SSE,165,2.0,21.0,24,0.00,,,0.00,Wunderground v.1.15,2013-07-04 17:39:00,
2013-07-04 11:41:00,76.3,36.8,22.65,South,176,2.0,2.0,24,0.00,,,0.00,Wunderground v.1.15,2013-07-04 17:41:00,
2013-07-04 11:43:00,76.4,40.9,22.65,SSW,193,2.0,21.0,28,0.00,,,0.00,Wunderground v.1.15,2013-07-04 17:43:00,
2013-07-04 11:45:00,76.8,42.1,22.65,SSW,205,2.0,21.0,29,0.00,,,0.00,Wunderground v.1.15,2013-07-04 17:45:00,
2013-07-04 11:47:00,77.4,44.4,22.65,SE,127,2.0,21.0,31,0.00,,,0.00,Wunderground v.1.15,2013-07-04 17:47:00,
2013-07-04 11:49:00,77.7,40.1,22.65,SSE,150,2.0,21.0,26,0.00,,,0.00,Wunderground v.1.15,2013-07-04 17:49:00,
2013-07-04 11:51:00,78.0,39.3,22.65,South,171,2.0,2.0,25,0.00,,,0.00,Wunderground v.1.15,2013-07-04 17:51:00,
2013-07-04 11:57:00,77.4,37.8,22.65,ENE,74,2.0,21.0,24,0.00,,,0.00,Wunderground v.1.15,2013-07-04 17:57:00,
2013-07-04 12:01:00,76.8,38.3,22.65,NE,46,2.0,2.0,25,0.00,,,0.00,Wunderground v.1.15,2013-07-04 18:01:00,
2013-07-04 12:03:00,76.8,39.3,22.64,NNW,336,2.0,4.0,26,0.00,,,0.00,Wunderground v.1.15,2013-07-04 18:03:00,
2013-07-04 12:05:00,76.4,38.0,22.65,NE,34,2.0,21.0,25,0.00,,,0.00,Wunderground v.1.15,2013-07-04 18:05:00,
2013-07-04 12:07:00,76.1,39.7,22.65,NNE,29,2.0,21.0,27,0.00,,,0.00,Wunderground v.1.15,2013-07-04 18:07:00,
2013-07-04 12:11:00,76.0,38.6,22.64,NW,325,2.0,2.0,26,0.00,,,0.00,Wunderground v.1.15,2013-07-04 18:11:00,
2013-07-04 12:13:00,75.9,37.5,22.64,NNW,338,2.0,4.0,25,0.00,,,0.00,Wunderground v.1.15,2013-07-04 18:13:00,
2013-07-04 12:15:00,75.7,39.3,22.64,NE,36,2.0,21.0,27,0.00,,,0.00,Wunderground v.1.15,2013-07-04 18:15:00,
2013-07-04 12:17:00,75.5,38.2,22.64,NW,319,2.0,21.0,26,0.00,,,0.00,Wunderground v.1.15,2013-07-04 18:17:00,
2013-07-04 12:19:00,75.2,37.9,22.64,NNW,341,3.0,21.0,26,0.00,,,0.00,Wunderground v.1.15,2013-07-04 18:19:00,
2013-07-04 12:21:00,75.1,37.9,22.64,WSW,245,3.0,3.0,26,0.00,,,0.00,Wunderground v.1.15,2013-07-04 18:21:00,
2013-07-04 12:25:00,75.7,39.3,22.64,North,351,2.0,21.0,27,0.00,,,0.00,Wunderground v.1.15,2013-07-04 18:25:00,
2013-07-04 12:27:00,75.9,39.5,22.64,NW,307,2.0,21.0,27,0.00,,,0.00,Wunderground v.1.15,2013-07-04 18:27:00,
2013-07-04 12:29:00,76.2,38.8,22.64,ENE,67,2.0,21.0,26,0.00,,,0.00,Wunderground v.1.15,2013-07-04 18:29:00,
2013-07-04 12:33:00,76.1,39.7,22.64,NE,36,2.0,21.0,27,0.00,,,0.00,Wunderground v.1.15,2013-07-04 18:33:00,
2013-07-04 12:35:00,76.3,41.7,22.64,ENE,65,1.0,21.0,29,0.00,,,0.00,Wunderground v.1.15,2013-07-04 18:35:00,
2013-07-04 12:37:00,76.5,42.7,22.64,SE,126,1.0,21.0,30,0.00,,,0.00,Wunderground v.1.15,2013-07-04 18:37:00,
2013-07-04 12:39:00,76.6,41.0,22.64,SSE,152,2.0,21.0,28,0.00,,,0.00,Wunderground v.1.15,2013-07-04 18:39:00,
2013-07-04 12:41:00,76.6,41.0,22.64,ENE,75,2.0,2.0,28,0.00,,,0.00,Wunderground v.1.15,2013-07-04 18:41:00,
2013-07-04 12:45:00,75.9,40.4,22.64,NNE,16,2.0,21.0,28,0.00,,,0.00,Wunderground v.1.15,2013-07-04 18:45:00,
2013-07-04 12:47:00,75.8,41.3,22.64,SW,229,2.0,21.0,29,0.00,,,0.00,Wunderground v.1.15,2013-07-04 18:47:00,
2013-07-04 12:51:00,76.1,41.5,22.64,South,188,2.0,21.0,29,0.00,,,0.00,Wunderground v.1.15,2013-07-04 18:51:00,
2013-07-04 12:53:00,76.5,44.4,22.64,SE,145,2.0,21.0,32,0.00,,,0.00,Wunderground v.1.15,2013-07-04 18:53:00,
2013-07-04 12:59:00,78.3,43.4,22.64,ENE,67,3.0,21.0,29,0.00,,,0.00,Wunderground v.1.15,2013-07-04 18:59:00,
2013-07-04 13:01:00,79.1,39.2,22.64,SE,136,3.0,3.0,24,0.00,,,0.00,Wunderground v.1.15,2013-07-04 19:01:00,
2013-07-04 13:05:00,79.1,39.2,22.64,NNE,23,3.0,21.0,24,0.00,,,0.00,Wunderground v.1.15,2013-07-04 19:05:00,
2013-07-04 13:07:00,78.8,43.8,22.64,South,184,2.0,21.0,29,0.00,,,0.00,Wunderground v.1.15,2013-07-04 19:07:00,
2013-07-04 13:09:00,78.5,43.6,22.64,SE,129,2.0,21.0,29,0.00,,,0.00,Wunderground v.1.15,2013-07-04 19:09:00,
2013-07-04 13:11:00,78.1,44.1,22.64,SE,134,2.0,21.0,30,0.00,,,0.00,Wunderground v.1.15,2013-07-04 19:11:00,
2013-07-04 13:13:00,77.7,45.5,22.64,SE,146,3.0,21.0,32,0.00,,,0.00,Wunderground v.1.15,2013-07-04 19:13:00,
2013-07-04 13:15:00,77.2,45.0,22.64,East,80,3.0,21.0,32,0.00,,,0.00,Wunderground v.1.15,2013-07-04 19:15:00,
2013-07-04 13:17:00,76.8,43.9,22.64,North,357,3.0,21.0,31,0.00,,,0.00,Wunderground v.1.15,2013-07-04 19:17:00,
2013-07-04 13:19:00,76.6,42.8,22.64,NE,43,3.0,21.0,30,0.00,,,0.00,Wunderground v.1.15,2013-07-04 19:19:00,
2013-07-04 13:21:00,76.2,42.5,22.64,NNE,20,3.0,21.0,30,0.00,,,0.00,Wunderground v.1.15,2013-07-04 19:21:00,
2013-07-04 13:23:00,76.2,44.2,22.64,ESE,106,2.0,21.0,32,0.00,,,0.00,Wunderground v.1.15,2013-07-04 19:23:00,
2013-07-04 13:25:00,76.9,44.0,22.64,East,94,2.0,21.0,31,0.00,,,0.00,Wunderground v.1.15,2013-07-04 19:25:00,
2013-07-04 13:27:00,77.4,46.0,22.64,SSW,200,2.0,21.0,33,0.00,,,0.00,Wunderground v.1.15,2013-07-04 19:27:00,
2013-07-04 13:29:00,78.0,45.7,22.64,SSE,165,2.0,21.0,32,0.00,,,0.00,Wunderground v.1.15,2013-07-04 19:29:00,
2013-07-04 13:35:00,78.9,43.0,22.64,East,82,2.0,21.0,28,0.00,,,0.00,Wunderground v.1.15,2013-07-04 19:35:00,
2013-07-04 13:37:00,78.8,42.9,22.63,NE,44,3.0,21.0,28,0.00,,,0.00,Wunderground v.1.15,2013-07-04 19:37:00,
2013-07-04 13:41:00,77.5,43.6,22.64,NE,54,3.0,3.0,30,0.00,,,0.00,Wunderground v.1.15,2013-07-04 19:41:00,
2013-07-04 13:43:00,77.6,43.7,22.64,East,84,3.0,6.0,30,0.00,,,0.00,Wunderground v.1.15,2013-07-04 19:43:00,
2013-07-04 13:47:00,77.1,45.0,22.64,ESE,105,4.0,21.0,32,0.00,,,0.00,Wunderground v.1.15,2013-07-04 19:47:00,
2013-07-04 13:49:00,77.1,44.1,22.64,ESE,117,4.0,21.0,31,0.00,,,0.00,Wunderground v.1.15,2013-07-04 19:49:00,
2013-07-04 13:51:00,77.0,43.2,22.64,NNE,18,3.0,21.0,30,0.00,,,0.00,Wunderground v.1.15,2013-07-04 19:51:00,
2013-07-04 13:53:00,76.4,42.7,22.64,ESE,108,3.0,21.0,30,0.00,,,0.00,Wunderground v.1.15,2013-07-04 19:53:00,
2013-07-04 13:57:00,76.1,42.4,22.63,SSW,201,2.0,21.0,30,0.00,,,0.00,Wunderground v.1.15,2013-07-04 19:57:00,
2013-07-04 13:59:00,76.2,41.6,22.64,SSE,156,2.0,21.0,29,0.00,,,0.00,Wunderground v.1.15,2013-07-04 19:59:00,
2013-07-04 14:01:00,76.1,39.7,22.63,SSE,159,2.0,21.0,27,0.00,,,0.00,Wunderground v.1.15,2013-07-04 20:01:00,
2013-07-04 14:03:00,76.0,40.5,22.63,SSE,153,1.0,21.0,28,0.00,,,0.00,Wunderground v.1.15,2013-07-04 20:03:00,
2013-07-04 14:07:00,75.9,45.5,22.63,NE,46,1.0,21.0,34,0.00,,,0.00,Wunderground v.1.15,2013-07-04 20:07:00,
2013-07-04 14:09:00,75.8,42.1,22.63,SE,146,2.0,21.0,30,0.00,,,0.00,Wunderground v.1.15,2013-07-04 20:09:00,
2013-07-04 14:13:00,75.6,41.1,22.64,SE,136,1.0,21.0,29,0.00,,,0.00,Wunderground v.1.15,2013-07-04 20:13:00,
2013-07-04 14:15:00,75.5,42.7,22.63,ESE,122,1.0,21.0,31,0.00,,,0.00,Wunderground v.1.15,2013-07-04 20:15:00,
2013-07-04 14:17:00,75.5,42.7,22.63,SE,145,1.0,21.0,31,0.00,,,0.00,Wunderground v.1.15,2013-07-04 20:17:00,
2013-07-04 14:19:00,75.5,42.7,22.63,ENE,77,1.0,21.0,31,0.00,,,0.00,Wunderground v.1.15,2013-07-04 20:19:00,
2013-07-04 14:21:00,75.4,40.9,22.64,NNE,29,1.0,21.0,29,0.00,,,0.00,Wunderground v.1.15,2013-07-04 20:21:00,
2013-07-04 14:23:00,75.1,40.7,22.63,NNE,29,2.0,21.0,29,0.00,,,0.00,Wunderground v.1.15,2013-07-04 20:23:00,
2013-07-04 14:27:00,75.3,42.6,22.63,South,181,1.0,21.0,31,0.00,,,0.00,Wunderground v.1.15,2013-07-04 20:27:00,
2013-07-04 14:31:00,75.9,41.3,22.63,SE,129,1.0,21.0,29,0.00,,,0.00,Wunderground v.1.15,2013-07-04 20:31:00,
2013-07-04 14:33:00,76.2,43.3,22.63,SE,139,1.0,21.0,31,0.00,,,0.00,Wunderground v.1.15,2013-07-04 20:33:00,
2013-07-04 14:37:00,76.8,43.9,22.63,SSW,211,1.0,21.0,31,0.00,,,0.00,Wunderground v.1.15,2013-07-04 20:37:00,
2013-07-04 14:39:00,77.0,42.3,22.63,SE,139,1.0,21.0,29,0.00,,,0.00,Wunderground v.1.15,2013-07-04 20:39:00,
2013-07-04 14:41:00,77.0,41.4,22.63,SW,216,2.0,21.0,28,0.00,,,0.00,Wunderground v.1.15,2013-07-04 20:41:00,
2013-07-04 14:47:00,76.2,39.8,22.63,WSW,253,2.0,21.0,27,0.00,,,0.00,Wunderground v.1.15,2013-07-04 20:47:00,
2013-07-04 14:49:00,75.9,39.5,22.63,SSW,207,2.0,21.0,27,0.00,,,0.00,Wunderground v.1.15,2013-07-04 20:49:00,
2013-07-04 14:53:00,75.9,43.9,22.63,South,178,2.0,21.0,32,0.00,,,0.00,Wunderground v.1.15,2013-07-04 20:53:00,
2013-07-04 14:59:00,75.5,42.7,22.63,SSW,209,1.0,21.0,31,0.00,,,0.00,Wunderground v.1.15,2013-07-04 20:59:00,
2013-07-04 15:01:00,75.4,41.8,22.63,East,101,1.0,21.0,30,0.00,,,0.00,Wunderground v.1.15,2013-07-04 21:01:00,
2013-07-04 15:05:00,75.2,43.3,22.64,SE,138,1.0,21.0,32,0.00,,,0.00,Wunderground v.1.15,2013-07-04 21:05:00,
2013-07-04 15:07:00,75.1,44.0,22.64,ESE,115,1.0,21.0,33,0.00,,,0.00,Wunderground v.1.15,2013-07-04 21:07:00,
2013-07-04 15:09:00,75.0,46.2,22.64,South,179,1.0,21.0,36,0.00,,,0.00,Wunderground v.1.15,2013-07-04 21:09:00,
2013-07-04 15:11:00,74.9,44.6,22.64,SSE,153,1.0,21.0,34,0.00,,,0.00,Wunderground v.1.15,2013-07-04 21:11:00,
2013-07-04 15:13:00,74.8,46.1,22.64,South,169,1.0,21.0,36,0.00,,,0.00,Wunderground v.1.15,2013-07-04 21:13:00,
2013-07-04 15:15:00,74.4,43.4,22.64,SSW,198,2.0,21.0,33,0.00,,,0.00,Wunderground v.1.15,2013-07-04 21:15:00,
2013-07-04 15:19:00,72.6,41.8,22.64,SSE,166,5.0,21.0,33,0.00,,,0.00,Wunderground v.1.15,2013-07-04 21:19:00,
2013-07-04 15:21:00,72.2,40.7,22.64,SSW,203,5.0,5.0,32,0.00,,,0.00,Wunderground v.1.15,2013-07-04 21:21:00,
2013-07-04 15:23:00,72.2,42.3,22.63,SSW,205,6.0,6.0,34,0.00,,,0.00,Wunderground v.1.15,2013-07-04 21:23:00,
2013-07-04 15:25:00,72.6,42.6,22.63,SSE,167,6.0,21.0,34,0.00,,,0.00,Wunderground v.1.15,2013-07-04 21:25:00,
2013-07-04 15:29:00,73.4,40.9,22.63,SSE,160,4.0,21.0,31,0.00,,,0.00,Wunderground v.1.15,2013-07-04 21:29:00,
2013-07-04 15:35:00,74.7,43.7,22.63,SE,146,2.0,21.0,33,0.00,,,0.00,Wunderground v.1.15,2013-07-04 21:35:00,
2013-07-04 15:37:00,75.1,42.4,22.63,South,179,2.0,21.0,31,0.00,,,0.00,Wunderground v.1.15,2013-07-04 21:37:00,
2013-07-04 15:39:00,75.3,40.8,22.63,SW,218,2.0,21.0,29,0.00,,,0.00,Wunderground v.1.15,2013-07-04 21:39:00,
2013-07-04 15:43:00,75.9,41.3,22.63,WSW,246,1.0,21.0,29,0.00,,,0.00,Wunderground v.1.15,2013-07-04 21:43:00,
2013-07-04 15:45:00,76.0,41.4,22.62,West,259,1.0,21.0,29,0.00,,,0.00,Wunderground v.1.15,2013-07-04 21:45:00,
2013-07-04 15:49:00,76.0,41.4,22.63,SSW,198,2.0,21.0,29,0.00,,,0.00,Wunderground v.1.15,2013-07-04 21:49:00,
2013-07-04 15:51:00,76.0,41.4,22.63,ESE,108,2.0,21.0,29,0.00,,,0.00,Wunderground v.1.15,2013-07-04 21:51:00,
2013-07-04 15:55:00,76.2,40.7,22.62,ESE,105,2.0,21.0,28,0.00,,,0.00,Wunderground v.1.15,2013-07-04 21:55:00,
2013-07-04 15:59:00,76.9,42.2,22.62,WSW,255,1.0,21.0,29,0.00,,,0.00,Wunderground v.1.15,2013-07-04 21:59:00,
2013-07-04 16:01:00,76.9,41.3,22.62,WSW,256,1.0,21.0,28,0.00,,,0.00,Wunderground v.1.15,2013-07-04 22:01:00,
2013-07-04 16:05:00,76.3,41.7,22.62,SW,232,1.0,21.0,29,0.00,,,0.00,Wunderground v.1.15,2013-07-04 22:05:00,
2013-07-04 16:07:00,76.1,42.4,22.62,West,263,1.0,21.0,30,0.00,,,0.00,Wunderground v.1.15,2013-07-04 22:07:00,
2013-07-04 16:11:00,75.9,40.4,22.62,West,274,1.0,1.0,28,0.00,,,0.00,Wunderground v.1.15,2013-07-04 22:11:00,
2013-07-04 16:13:00,76.0,40.5,22.62,SSW,203,1.0,2.0,28,0.00,,,0.00,Wunderground v.1.15,2013-07-04 22:13:00,
2013-07-04 16:17:00,76.1,41.5,22.62,NW,304,1.0,21.0,29,0.00,,,0.00,Wunderground v.1.15,2013-07-04 22:17:00,
2013-07-04 16:19:00,76.2,41.6,22.62,North,8,1.0,21.0,29,0.00,,,0.00,Wunderground v.1.15,2013-07-04 22:19:00,
2013-07-04 16:23:00,76.2,41.6,22.62,WNW,288,2.0,21.0,29,0.00,,,0.00,Wunderground v.1.15,2013-07-04 22:23:00,
2013-07-04 16:25:00,76.8,43.9,22.62,SSE,149,2.0,21.0,31,0.00,,,0.00,Wunderground v.1.15,2013-07-04 22:25:00,
2013-07-04 16:27:00,77.4,42.6,22.61,WSW,249,2.0,21.0,29,0.00,,,0.00,Wunderground v.1.15,2013-07-04 22:27:00,
2013-07-04 16:31:00,78.3,43.4,22.61,West,262,2.0,21.0,29,0.00,,,0.00,Wunderground v.1.15,2013-07-04 22:31:00,
2013-07-04 16:33:00,78.5,42.7,22.61,NNW,347,1.0,21.0,28,0.00,,,0.00,Wunderground v.1.15,2013-07-04 22:33:00,
2013-07-04 16:35:00,78.7,43.8,22.61,SW,232,1.0,21.0,29,0.00,,,0.00,Wunderground v.1.15,2013-07-04 22:35:00,
2013-07-04 16:42:00,78.2,43.3,22.61,NNE,23,2.0,21.0,29,0.00,,,0.00,Wunderground v.1.15,2013-07-04 22:42:00,
2013-07-04 16:43:00,77.8,45.6,22.61,ESE,122,2.0,21.0,32,0.00,,,0.00,Wunderground v.1.15,2013-07-04 22:43:00,
2013-07-04 16:45:00,77.5,43.6,22.62,ESE,118,3.0,21.0,30,0.00,,,0.00,Wunderground v.1.15,2013-07-04 22:45:00,
2013-07-04 16:47:00,77.0,44.9,22.61,ESE,113,3.0,21.0,32,0.00,,,0.00,Wunderground v.1.15,2013-07-04 22:47:00,
2013-07-04 16:49:00,76.3,45.9,22.62,East,95,4.0,21.0,34,0.00,,,0.00,Wunderground v.1.15,2013-07-04 22:49:00,
2013-07-04 16:51:00,75.7,45.3,22.62,East,97,4.0,4.0,34,0.00,,,0.00,Wunderground v.1.15,2013-07-04 22:51:00,
2013-07-04 16:53:00,75.3,45.7,22.62,East,81,4.0,21.0,35,0.00,,,0.00,Wunderground v.1.15,2013-07-04 22:53:00,
2013-07-04 16:55:00,74.9,46.1,22.62,ESE,109,4.0,21.0,36,0.00,,,0.00,Wunderground v.1.15,2013-07-04 22:55:00,
2013-07-04 16:59:00,74.4,45.0,22.62,East,79,3.0,21.0,35,0.00,,,0.00,Wunderground v.1.15,2013-07-04 22:59:00,
2013-07-04 17:01:00,74.1,45.4,22.62,East,89,3.0,3.0,36,0.00,,,0.00,Wunderground v.1.15,2013-07-04 23:01:00,
2013-07-04 17:05:00,73.7,45.8,22.61,SE,145,3.0,21.0,37,0.00,,,0.00,Wunderground v.1.15,2013-07-04 23:05:00,
2013-07-04 17:07:00,73.5,46.3,22.62,ESE,110,3.0,21.0,38,0.00,,,0.00,Wunderground v.1.15,2013-07-04 23:07:00,
2013-07-04 17:09:00,73.3,45.4,22.62,SE,131,3.0,21.0,37,0.00,,,0.00,Wunderground v.1.15,2013-07-04 23:09:00,
2013-07-04 17:14:00,72.7,44.9,22.62,ESE,115,4.0,21.0,37,0.00,,,0.00,Wunderground v.1.15,2013-07-04 23:14:00,
2013-07-04 17:16:00,72.6,44.8,22.62,South,170,4.0,21.0,37,0.00,,,0.00,Wunderground v.1.15,2013-07-04 23:16:00,
2013-07-04 17:19:00,72.6,44.8,22.62,SSE,148,3.0,21.0,37,0.00,,,0.00,Wunderground v.1.15,2013-07-04 23:19:00,
2013-07-04 17:21:00,72.4,43.9,22.62,SSE,157,4.0,21.0,36,0.00,,,0.00,Wunderground v.1.15,2013-07-04 23:21:00,
2013-07-04 17:23:00,72.2,44.5,22.62,SSW,193,4.0,21.0,37,0.00,,,0.00,Wunderground v.1.15,2013-07-04 23:23:00,
2013-07-04 17:25:00,72.0,44.3,22.62,SE,128,4.0,21.0,37,0.00,,,0.00,Wunderground v.1.15,2013-07-04 23:25:00,
2013-07-04 17:27:00,71.9,43.5,22.62,SSE,160,4.0,21.0,36,0.00,,,0.00,Wunderground v.1.15,2013-07-04 23:27:00,
2013-07-04 17:29:00,71.9,44.9,22.62,SE,146,4.0,21.0,38,0.00,,,0.00,Wunderground v.1.15,2013-07-04 23:29:00,
2013-07-04 17:33:00,71.8,44.8,22.62,SSW,198,3.0,21.0,38,0.00,,,0.00,Wunderground v.1.15,2013-07-04 23:33:00,
2013-07-04 17:35:00,71.8,45.5,22.62,SSW,205,3.0,21.0,39,0.00,,,0.00,Wunderground v.1.15,2013-07-04 23:35:00,
2013-07-04 17:41:00,71.4,45.8,22.62,SSW,195,3.0,3.0,40,0.00,,,0.00,Wunderground v.1.15,2013-07-04 23:41:00,
2013-07-04 17:44:00,71.3,45.1,22.62,WSW,238,2.0,21.0,39,0.00,,,0.00,Wunderground v.1.15,2013-07-04 23:44:00,
2013-07-04 17:47:00,71.1,45.5,22.62,SW,214,2.0,21.0,40,0.00,,,0.00,Wunderground v.1.15,2013-07-04 23:47:00,
2013-07-04 17:49:00,71.0,46.1,22.62,South,176,2.0,21.0,41,0.00,,,0.00,Wunderground v.1.15,2013-07-04 23:49:00,
2013-07-04 17:53:00,70.8,45.9,22.62,South,188,2.0,21.0,41,0.00,,,0.00,Wunderground v.1.15,2013-07-04 23:53:00,
2013-07-04 17:56:00,70.7,45.2,22.62,SSW,212,2.0,21.0,40,0.00,,,0.00,Wunderground v.1.15,2013-07-04 23:56:00,
2013-07-04 17:57:00,70.6,44.4,22.62,SW,231,3.0,21.0,39,0.00,,,0.00,Wunderground v.1.15,2013-07-04 23:57:00,
2013-07-04 18:01:00,70.5,46.3,22.62,SE,139,3.0,21.0,42,0.00,,,0.00,Wunderground v.1.15,2013-07-05 00:01:00,
2013-07-04 18:03:00,70.5,45.7,22.62,SSE,154,3.0,21.0,41,0.00,,,0.00,Wunderground v.1.15,2013-07-05 00:03:00,
2013-07-04 18:07:00,70.5,45.0,22.62,SSW,205,3.0,21.0,40,0.00,,,0.00,Wunderground v.1.15,2013-07-05 00:07:00,
2013-07-04 18:09:00,70.6,46.4,22.62,South,172,2.0,21.0,42,0.00,,,0.00,Wunderground v.1.15,2013-07-05 00:09:00,
2013-07-04 18:11:00,70.5,45.7,22.62,South,179,3.0,21.0,41,0.00,,,0.00,Wunderground v.1.15,2013-07-05 00:11:00,
2013-07-04 18:13:00,70.4,46.8,22.62,SSW,204,3.0,21.0,43,0.00,,,0.00,Wunderground v.1.15,2013-07-05 00:13:00,
2013-07-04 18:15:00,70.3,46.1,22.62,SW,217,3.0,21.0,42,0.00,,,0.00,Wunderground v.1.15,2013-07-05 00:15:00,
2013-07-04 18:17:00,70.2,46.0,22.62,SW,231,3.0,21.0,42,0.00,,,0.00,Wunderground v.1.15,2013-07-05 00:17:00,
2013-07-04 18:19:00,70.1,46.6,22.62,SW,222,4.0,21.0,43,0.00,,,0.00,Wunderground v.1.15,2013-07-05 00:19:00,
2013-07-04 18:23:00,69.7,48.0,22.62,SSW,207,4.0,21.0,46,0.00,,,0.00,Wunderground v.1.15,2013-07-05 00:23:00,
2013-07-04 18:25:00,69.6,47.3,22.62,West,260,4.0,21.0,45,0.00,,,0.00,Wunderground v.1.15,2013-07-05 00:25:00,
2013-07-04 18:29:00,69.6,47.9,22.62,WSW,254,2.0,21.0,46,0.00,,,0.00,Wunderground v.1.15,2013-07-05 00:29:00,
2013-07-04 18:31:00,69.8,46.9,22.62,NE,53,2.0,21.0,44,0.00,,,0.00,Wunderground v.1.15,2013-07-05 00:31:00,
2013-07-04 18:33:00,69.9,46.4,22.62,SSW,195,1.0,21.0,43,0.00,,,0.00,Wunderground v.1.15,2013-07-05 00:33:00,
2013-07-04 18:39:00,70.1,46.6,22.62,West,269,1.0,21.0,43,0.00,,,0.00,Wunderground v.1.15,2013-07-05 00:39:00,
2013-07-04 18:41:00,70.1,46.6,22.62,WNW,292,1.0,21.0,43,0.00,,,0.00,Wunderground v.1.15,2013-07-05 00:41:00,
2013-07-04 18:43:00,70.2,45.4,22.62,NW,319,1.0,21.0,41,0.00,,,0.00,Wunderground v.1.15,2013-07-05 00:43:00,
2013-07-04 18:47:00,70.0,45.2,22.62,NW,318,2.0,21.0,41,0.00,,,0.00,Wunderground v.1.15,2013-07-05 00:47:00,
2013-07-04 18:49:00,69.9,45.1,22.62,NNW,339,2.0,21.0,41,0.00,,,0.00,Wunderground v.1.15,2013-07-05 00:49:00,
2013-07-04 18:53:00,69.6,47.3,22.62,WNW,299,2.0,21.0,45,0.00,,,0.00,Wunderground v.1.15,2013-07-05 00:53:00,
2013-07-04 18:55:00,69.5,47.2,22.62,West,277,2.0,21.0,45,0.00,,,0.00,Wunderground v.1.15,2013-07-05 00:55:00,
2013-07-04 18:57:00,69.5,47.2,22.62,WSW,253,1.0,21.0,45,0.00,,,0.00,Wunderground v.1.15,2013-07-05 00:57:00,
2013-07-04 18:59:00,69.4,47.7,22.62,West,266,1.0,21.0,46,0.00,,,0.00,Wunderground v.1.15,2013-07-05 00:59:00,
2013-07-04 19:01:00,69.3,47.6,22.62,West,261,1.0,21.0,46,0.00,,,0.00,Wunderground v.1.15,2013-07-05 01:01:00,
2013-07-04 19:03:00,69.2,46.9,22.62,West,280,1.0,21.0,45,0.00,,,0.00,Wunderground v.1.15,2013-07-05 01:03:00,
2013-07-04 19:09:00,69.1,46.9,22.62,WSW,252,1.0,21.0,45,0.00,,,0.00,Wunderground v.1.15,2013-07-05 01:09:00,
2013-07-04 19:11:00,69.1,47.4,22.62,WSW,252,1.0,21.0,46,0.00,,,0.00,Wunderground v.1.15,2013-07-05 01:11:00,
2013-07-04 19:15:00,69.0,46.2,22.62,West,264,1.0,21.0,44,0.00,,,0.00,Wunderground v.1.15,2013-07-05 01:15:00,
2013-07-04 19:17:00,69.1,46.3,22.62,West,269,1.0,21.0,44,0.00,,,0.00,Wunderground v.1.15,2013-07-05 01:17:00,
2013-07-04 19:23:00,69.2,45.7,22.62,SW,226,1.0,21.0,43,0.00,,,0.00,Wunderground v.1.15,2013-07-05 01:23:00,
2013-07-04 19:25:00,69.2,45.7,22.62,NW,315,1.0,21.0,43,0.00,,,0.00,Wunderground v.1.15,2013-07-05 01:25:00,
2013-07-04 19:27:00,69.2,45.1,22.62,NW,307,1.0,21.0,42,0.00,,,0.00,Wunderground v.1.15,2013-07-05 01:27:00,
2013-07-04 19:29:00,69.1,45.0,22.62,WSW,242,1.0,21.0,42,0.00,,,0.00,Wunderground v.1.15,2013-07-05 01:29:00,
2013-07-04 19:31:00,69.1,45.0,22.62,WSW,243,1.0,1.0,42,0.00,,,0.00,Wunderground v.1.15,2013-07-05 01:31:00,
2013-07-04 19:37:00,69.0,45.6,22.62,WSW,257,1.0,21.0,43,0.00,,,0.00,Wunderground v.1.15,2013-07-05 01:37:00,
2013-07-04 19:39:00,68.9,45.5,22.63,WSW,255,1.0,21.0,43,0.00,,,0.00,Wunderground v.1.15,2013-07-05 01:39:00,
2013-07-04 19:41:00,68.9,45.5,22.63,WNW,301,1.0,21.0,43,0.00,,,0.00,Wunderground v.1.15,2013-07-05 01:41:00,
2013-07-04 19:47:00,68.6,45.8,22.63,SW,233,2.0,21.0,44,0.00,,,0.00,Wunderground v.1.15,2013-07-05 01:47:00,
2013-07-04 19:49:00,68.5,45.7,22.63,SSW,208,2.0,21.0,44,0.00,,,0.00,Wunderground v.1.15,2013-07-05 01:49:00,
2013-07-04 19:55:00,68.1,45.4,22.62,SW,219,2.0,21.0,44,0.00,,,0.00,Wunderground v.1.15,2013-07-05 01:55:00,
2013-07-04 19:57:00,68.1,45.4,22.62,SW,219,1.0,21.0,44,0.00,,,0.00,Wunderground v.1.15,2013-07-05 01:57:00,
2013-07-04 20:03:00,68.3,45.5,22.62,SW,229,1.0,21.0,44,0.00,,,0.00,Wunderground v.1.15,2013-07-05 02:03:00,
2013-07-04 20:05:00,68.3,46.1,22.63,West,262,1.0,21.0,45,0.00,,,0.00,Wunderground v.1.15,2013-07-05 02:05:00,
2013-07-04 20:07:00,68.3,45.5,22.63,WSW,239,1.0,21.0,44,0.00,,,0.00,Wunderground v.1.15,2013-07-05 02:07:00,
2013-07-04 20:09:00,68.2,45.4,22.62,WSW,243,2.0,21.0,44,0.00,,,0.00,Wunderground v.1.15,2013-07-05 02:09:00,
2013-07-04 20:13:00,68.0,45.9,22.63,WSW,249,2.0,21.0,45,0.00,,,0.00,Wunderground v.1.15,2013-07-05 02:13:00,
2013-07-04 20:15:00,67.9,46.3,22.62,WSW,242,2.0,21.0,46,0.00,,,0.00,Wunderground v.1.15,2013-07-05 02:15:00,
2013-07-04 20:19:00,67.7,46.2,22.62,WSW,246,2.0,21.0,46,0.00,,,0.00,Wunderground v.1.15,2013-07-05 02:19:00,
2013-07-04 20:21:00,67.6,46.1,22.62,WSW,246,1.0,1.0,46,0.00,,,0.00,Wunderground v.1.15,2013-07-05 02:21:00,
2013-07-04 20:24:00,67.4,46.5,22.62,WSW,246,1.0,21.0,47,0.00,,,0.00,Wunderground v.1.15,2013-07-05 02:24:00,
2013-07-04 20:25:00,67.2,46.8,22.62,West,259,1.0,21.0,48,0.00,,,0.00,Wunderground v.1.15,2013-07-05 02:25:00,
2013-07-04 20:29:00,66.8,44.8,22.62,SW,224,0.0,21.0,45,0.00,,,0.00,Wunderground v.1.15,2013-07-05 02:29:00,
2013-07-04 20:33:00,66.4,45.0,22.62,West,262,0.0,21.0,46,0.00,,,0.00,Wunderground v.1.15,2013-07-05 02:33:00,
2013-07-04 20:37:00,65.9,44.5,22.63,West,274,1.0,21.0,46,0.00,,,0.00,Wunderground v.1.15,2013-07-05 02:37:00,
2013-07-04 20:41:00,65.4,44.6,22.62,West,281,1.0,1.0,47,0.00,,,0.00,Wunderground v.1.15,2013-07-05 02:41:00,
2013-07-04 20:43:00,65.2,45.5,22.62,West,274,1.0,21.0,49,0.00,,,0.00,Wunderground v.1.15,2013-07-05 02:43:00,
2013-07-04 20:45:00,65.0,44.8,22.62,West,274,0.0,21.0,48,0.00,,,0.00,Wunderground v.1.15,2013-07-05 02:45:00,
2013-07-04 20:47:00,64.8,45.7,22.62,West,274,0.0,21.0,50,0.00,,,0.00,Wunderground v.1.15,2013-07-05 02:47:00,
2013-07-04 20:49:00,64.6,46.6,22.62,West,269,0.0,21.0,52,0.00,,,0.00,Wunderground v.1.15,2013-07-05 02:49:00,
2013-07-04 20:51:00,64.3,46.3,22.62,West,269,0.0,21.0,52,0.00,,,0.00,Wunderground v.1.15,2013-07-05 02:51:00,
2013-07-04 20:53:00,64.1,45.6,22.63,West,269,0.0,21.0,51,0.00,,,0.00,Wunderground v.1.15,2013-07-05 02:53:00,
2013-07-04 20:55:00,63.8,46.3,22.63,West,269,0.0,21.0,53,0.00,,,0.00,Wunderground v.1.15,2013-07-05 02:55:00,
2013-07-04 20:57:00,63.5,46.6,22.63,West,268,0.0,21.0,54,0.00,,,0.00,Wunderground v.1.15,2013-07-05 02:57:00,
2013-07-04 21:01:00,63.1,46.2,22.63,West,268,0.0,21.0,54,0.00,,,0.00,Wunderground v.1.15,2013-07-05 03:01:00,
2013-07-04 21:03:00,62.8,46.4,22.63,West,269,0.0,21.0,55,0.00,,,0.00,Wunderground v.1.15,2013-07-05 03:03:00,
2013-07-04 21:05:00,62.6,46.2,22.63,West,268,0.0,21.0,55,0.00,,,0.00,Wunderground v.1.15,2013-07-05 03:05:00,
2013-07-04 21:07:00,62.4,45.5,22.63,West,268,0.0,21.0,54,0.00,,,0.00,Wunderground v.1.15,2013-07-05 03:07:00,
2013-07-04 21:12:00,61.9,45.1,22.63,West,269,0.0,21.0,54,0.00,,,0.00,Wunderground v.1.15,2013-07-05 03:12:00,
2013-07-04 21:13:00,61.7,45.8,22.63,West,269,0.0,21.0,56,0.00,,,0.00,Wunderground v.1.15,2013-07-05 03:13:00,
2013-07-04 21:19:00,61.2,45.8,22.63,West,269,0.0,21.0,57,0.00,,,0.00,Wunderground v.1.15,2013-07-05 03:19:00,
2013-07-04 21:23:00,60.8,46.4,22.63,West,269,0.0,21.0,59,0.00,,,0.00,Wunderground v.1.15,2013-07-05 03:23:00,
2013-07-04 21:29:00,60.1,45.7,22.63,West,268,0.0,21.0,59,0.00,,,0.00,Wunderground v.1.15,2013-07-05 03:29:00,
2013-07-04 21:31:00,59.9,45.5,22.63,WNW,299,0.0,21.0,59,0.00,,,0.00,Wunderground v.1.15,2013-07-05 03:31:00,
2013-07-04 21:33:00,59.7,45.8,22.63,WNW,301,0.0,21.0,60,0.00,,,0.00,Wunderground v.1.15,2013-07-05 03:33:00,
2013-07-04 21:35:00,59.6,45.7,22.63,WNW,301,0.0,21.0,60,0.00,,,0.00,Wunderground v.1.15,2013-07-05 03:35:00,
2013-07-04 21:37:00,59.4,45.9,22.63,WNW,301,0.0,21.0,61,0.00,,,0.00,Wunderground v.1.15,2013-07-05 03:37:00,
2013-07-04 21:39:00,59.3,45.8,22.63,WNW,301,0.0,21.0,61,0.00,,,0.00,Wunderground v.1.15,2013-07-05 03:39:00,
2013-07-04 21:41:00,59.1,46.1,22.63,WNW,301,0.0,21.0,62,0.00,,,0.00,Wunderground v.1.15,2013-07-05 03:41:00,
2013-07-04 21:45:00,58.9,45.9,22.63,WNW,301,0.0,21.0,62,0.00,,,0.00,Wunderground v.1.15,2013-07-05 03:45:00,
2013-07-04 21:47:00,58.8,45.4,22.63,WNW,300,0.0,21.0,61,0.00,,,0.00,Wunderground v.1.15,2013-07-05 03:47:00,
2013-07-04 21:49:00,58.8,45.8,22.63,WNW,301,0.0,21.0,62,0.00,,,0.00,Wunderground v.1.15,2013-07-05 03:49:00,
2013-07-04 21:53:00,58.6,46.0,22.63,WNW,301,0.0,21.0,63,0.00,,,0.00,Wunderground v.1.15,2013-07-05 03:53:00,
2013-07-04 21:56:00,58.4,45.8,22.63,WNW,301,0.0,21.0,63,0.00,,,0.00,Wunderground v.1.15,2013-07-05 03:56:00,
2013-07-04 21:59:00,58.1,45.1,22.63,WNW,299,0.0,21.0,62,0.00,,,0.00,Wunderground v.1.15,2013-07-05 03:59:00,
2013-07-04 22:01:00,58.0,45.9,22.63,WNW,300,0.0,21.0,64,0.00,,,0.00,Wunderground v.1.15,2013-07-05 04:01:00,
2013-07-04 22:03:00,57.9,46.2,22.63,WNW,299,0.0,21.0,65,0.00,,,0.00,Wunderground v.1.15,2013-07-05 04:03:00,
2013-07-04 22:05:00,57.8,46.1,22.63,WNW,300,0.0,21.0,65,0.00,,,0.00,Wunderground v.1.15,2013-07-05 04:05:00,
2013-07-04 22:09:00,57.4,45.7,22.63,WNW,299,0.0,21.0,65,0.00,,,0.00,Wunderground v.1.15,2013-07-05 04:09:00,
2013-07-04 22:11:00,57.4,45.7,22.63,WNW,299,0.0,21.0,65,0.00,,,0.00,Wunderground v.1.15,2013-07-05 04:11:00,
2013-07-04 22:13:00,57.3,46.0,22.63,WNW,299,0.0,21.0,66,0.00,,,0.00,Wunderground v.1.15,2013-07-05 04:13:00,
2013-07-04 22:17:00,57.2,45.5,22.63,WNW,299,0.0,21.0,65,0.00,,,0.00,Wunderground v.1.15,2013-07-05 04:17:00,
2013-07-04 22:19:00,57.1,45.4,22.63,WNW,300,0.0,21.0,65,0.00,,,0.00,Wunderground v.1.15,2013-07-05 04:19:00,
2013-07-04 22:21:00,56.9,45.7,22.63,WNW,299,0.0,21.0,66,0.00,,,0.00,Wunderground v.1.15,2013-07-05 04:21:00,
2013-07-04 22:25:00,56.6,45.8,22.63,WNW,299,0.0,21.0,67,0.00,,,0.00,Wunderground v.1.15,2013-07-05 04:25:00,
2013-07-04 22:27:00,56.4,46.0,22.63,WNW,300,0.0,21.0,68,0.00,,,0.00,Wunderground v.1.15,2013-07-05 04:27:00,
2013-07-04 22:31:00,56.2,45.0,22.63,WNW,299,0.0,21.0,66,0.00,,,0.00,Wunderground v.1.15,2013-07-05 04:31:00,
2013-07-04 22:33:00,56.2,45.0,22.63,WNW,299,0.0,21.0,66,0.00,,,0.00,Wunderground v.1.15,2013-07-05 04:33:00,
2013-07-04 22:35:00,56.1,45.3,22.63,WNW,299,0.0,21.0,67,0.00,,,0.00,Wunderground v.1.15,2013-07-05 04:35:00,
2013-07-04 22:37:00,56.0,44.8,22.63,WNW,300,0.0,21.0,66,0.00,,,0.00,Wunderground v.1.15,2013-07-05 04:37:00,
2013-07-04 22:39:00,56.0,44.4,22.63,WNW,300,0.0,21.0,65,0.00,,,0.00,Wunderground v.1.15,2013-07-05 04:39:00,
2013-07-04 22:41:00,56.0,44.8,22.63,WNW,300,0.0,21.0,66,0.00,,,0.00,Wunderground v.1.15,2013-07-05 04:41:00,
2013-07-04 22:46:00,56.0,45.2,22.63,WNW,300,0.0,21.0,67,0.00,,,0.00,Wunderground v.1.15,2013-07-05 04:46:00,
2013-07-04 22:47:00,55.9,45.5,22.63,WNW,300,0.0,21.0,68,0.00,,,0.00,Wunderground v.1.15,2013-07-05 04:47:00,
2013-07-04 22:51:00,55.8,45.0,22.63,WNW,299,0.0,21.0,67,0.00,,,0.00,Wunderground v.1.15,2013-07-05 04:51:00,
2013-07-04 22:55:00,55.6,45.2,22.63,WNW,299,0.0,21.0,68,0.00,,,0.00,Wunderground v.1.15,2013-07-05 04:55:00,
2013-07-04 22:57:00,55.5,45.5,22.63,WNW,299,0.0,21.0,69,0.00,,,0.00,Wunderground v.1.15,2013-07-05 04:57:00,
2013-07-04 23:01:00,55.3,46.1,22.63,WNW,299,0.0,21.0,71,0.00,,,0.00,Wunderground v.1.15,2013-07-05 05:01:00,
2013-07-04 23:03:00,55.2,45.6,22.63,WNW,300,0.0,21.0,70,0.00,,,0.00,Wunderground v.1.15,2013-07-05 05:03:00,
2013-07-04 23:09:00,55.0,45.0,22.63,WNW,300,0.0,21.0,69,0.00,,,0.00,Wunderground v.1.15,2013-07-05 05:09:00,
2013-07-04 23:11:00,55.1,45.1,22.63,WNW,300,0.0,21.0,69,0.00,,,0.00,Wunderground v.1.15,2013-07-05 05:11:00,
2013-07-04 23:13:00,55.1,45.1,22.63,WNW,299,0.0,21.0,69,0.00,,,0.00,Wunderground v.1.15,2013-07-05 05:13:00,
2013-07-04 23:15:00,55.1,44.7,22.63,NNW,338,0.0,21.0,68,0.00,,,0.00,Wunderground v.1.15,2013-07-05 05:15:00,
2013-07-04 23:19:00,55.3,44.5,22.63,West,260,0.0,21.0,67,0.00,,,0.00,Wunderground v.1.15,2013-07-05 05:19:00,
2013-07-04 23:21:00,55.5,44.7,22.63,West,260,0.0,21.0,67,0.00,,,0.00,Wunderground v.1.15,2013-07-05 05:21:00,
2013-07-04 23:25:00,55.7,45.3,22.63,West,260,0.0,21.0,68,0.00,,,0.00,Wunderground v.1.15,2013-07-05 05:25:00,
2013-07-04 23:27:00,55.7,45.3,22.63,SW,226,0.0,21.0,68,0.00,,,0.00,Wunderground v.1.15,2013-07-05 05:27:00,
2013-07-04 23:29:00,55.7,44.9,22.63,SW,233,0.0,21.0,67,0.00,,,0.00,Wunderground v.1.15,2013-07-05 05:29:00,
2013-07-04 23:33:00,55.4,45.4,22.63,SE,124,0.0,21.0,69,0.00,,,0.00,Wunderground v.1.15,2013-07-05 05:33:00,
2013-07-04 23:35:00,55.2,45.2,22.63,ENE,77,1.0,21.0,69,0.00,,,0.00,Wunderground v.1.15,2013-07-05 05:35:00,
2013-07-04 23:39:00,55.0,45.0,22.63,ENE,77,1.0,21.0,69,0.00,,,0.00,Wunderground v.1.15,2013-07-05 05:39:00,
2013-07-04 23:41:00,55.0,45.4,22.63,ENE,77,1.0,1.0,70,0.00,,,0.00,Wunderground v.1.15,2013-07-05 05:41:00,
2013-07-04 23:43:00,55.0,45.8,22.63,ENE,77,1.0,21.0,71,0.00,,,0.00,Wunderground v.1.15,2013-07-05 05:43:00,
2013-07-04 23:45:00,54.9,45.3,22.63,ENE,77,1.0,21.0,70,0.00,,,0.00,Wunderground v.1.15,2013-07-05 05:45:00,
2013-07-04 23:47:00,54.8,45.6,22.63,ENE,77,1.0,21.0,71,0.00,,,0.00,Wunderground v.1.15,2013-07-05 05:47:00,
2013-07-04 23:51:00,54.7,45.1,22.63,ENE,77,0.0,21.0,70,0.00,,,0.00,Wunderground v.1.15,2013-07-05 05:51:00,
2013-07-04 23:53:00,54.7,45.5,22.63,North,353,1.0,21.0,71,0.00,,,0.00,Wunderground v.1.15,2013-07-05 05:53:00,
2013-07-04 23:58:00,54.6,45.0,22.63,North,352,1.0,21.0,70,0.00,,,0.00,Wunderground v.1.15,2013-07-05 05:58:00,
2013-07-04 23:59:00,54.6,45.4,22.63,North,352,1.0,21.0,71,0.00,,,0.00,Wunderground v.1.15,2013-07-05 05:59:00,